{"data":{"norad_id":39256,"epoch":"2026-05-24T22:01:07.742208Z","epoch_age_seconds":81392,"freshness":"FRESH","line1":"1 39256U 13050A   26144.91745072  .00000026  00000+0  00000+0 0  9992","line2":"2 39256   5.2370  67.4031 0088049 188.4331 192.7821  1.00275669 45423","mean_motion":1.00275669,"eccentricity":0.0088049,"inclination_deg":5.237,"raan_deg":67.4031,"arg_perigee_deg":188.4331,"mean_anomaly_deg":192.7821,"bstar":0,"rev_number":4542,"period_min":1436.0412793656,"perigee_km":35414.259508394,"apogee_km":36156.752831891,"semimajor_km":42163.643170142,"source":"CELESTRAK","updated_at":"2026-05-25T13:38:13.945604Z"}}